Location: K�ln
(50.9455°N, 6.9544°E)
Time: 22:46:11
(UTC+02:00)

ISS - Visible Passes

Search period start: 25 September 2020 00:00
Search period end: 05 October 2020 00:00
Orbit: 419 x 420 km, 51.6° (Epoch: 26 September)

Date Brightness Start Highest point End Pass type
(mag) Time Alt. Az. Time Alt. Az. Time Alt. Az.
25 Sep -3.7 20:57:35 10° W 21:00:58 77° N 21:02:08 38° ENE visible
25 Sep -0.7 22:34:27 10° WNW 22:35:06 15° W 22:35:06 15° W visible
26 Sep -3.7 20:10:10 10° W 20:13:33 83° N 20:16:31 13° E visible
26 Sep -2.6 21:47:03 10° W 21:49:28 44° W 21:49:28 44° W visible
27 Sep -3.8 20:59:38 10° W 21:03:02 82° N 21:03:50 50° E visible
27 Sep -0.5 22:36:32 10° W 22:36:47 12° W 22:36:47 12° W visible
28 Sep -3.7 20:12:13 10° W 20:15:36 77° N 20:18:11 16° E visible
28 Sep -2.1 21:49:05 10° W 21:51:09 33° W 21:51:09 33° W visible
29 Sep -3.8 21:01:39 10° WNW 21:05:01 73° SSW 21:05:30 59° SE visible
30 Sep -3.8 20:14:13 10° W 20:17:36 88° SSW 20:19:53 19° ESE visible
30 Sep -1.5 21:51:10 10° W 21:52:51 22° WSW 21:52:51 22° WSW visible
01 Oct -3.0 21:03:38 10° W 21:06:51 41° SSW 21:07:15 39° S visible
02 Oct -3.3 20:16:09 10° W 20:19:28 56° SSW 20:21:42 19° SE visible
02 Oct -0.9 21:53:46 10° WSW 21:54:40 13° WSW 21:54:40 13° WSW visible
03 Oct -1.8 21:05:51 10° W 21:08:29 21° SW 21:09:10 20° SSW visible
04 Oct -2.2 20:18:10 10° W 20:21:10 30° SSW 20:23:45 12° SSE visible
